contact:dominique.lefevre@mio.osupytheas.fr, maurice.libes@osupytheas.fr, didier.mallarino@osupytheas.fr
Project:EMSO http://www.emso-fr.org/EMSO-France
Depth: 2436.0 m
Title:EMSO Ligure Ouest : Data MII capteur CSTAR
DateTime,Latitude,Longitude,Instrument_Serial,Reference_Counts,Signal_Counts,Corrected_Signal_raw_counts,Calculated_Beam_c_inverse_meters,Internal_thermistor_counts
DateTime,Latitude,Longitude,Instrument_Serial,Reference_Counts,Signal_Counts,Corrected_Signal_raw_counts,Calculated_Beam_c_inverse_meters,Internal_thermistor_counts
2021-07-06T00:00:48,42.805,6.029,CST-1368DR,5416,7536,14930,0.180,551
2021-07-06T00:03:50,42.805,6.029,CST-1368DR,5416,7537,14932,0.179,551
2021-07-06T00:06:51,42.805,6.029,CST-1368DR,5416,7537,14931,0.179,551
2021-07-06T00:09:53,42.805,6.029,CST-1368DR,5416,7537,14931,0.179,551
2021-07-06T00:12:54,42.805,6.029,CST-1368DR,5416,7537,14931,0.179,551
2021-07-06T00:15:56,42.805,6.029,CST-1368DR,5416,7537,14931,0.179,551
2021-07-06T00:18:58,42.805,6.029,CST-1368DR,5416,7536,14930,0.180,551
2021-07-06T00:21:59,42.805,6.029,CST-1368DR,5416,7536,14929,0.180,551
2021-07-06T00:25:01,42.805,6.029,CST-1368DR,5416,7537,14931,0.179,551
2021-07-06T00:28:02,42.805,6.029,CST-1368DR,5416,7535,14927,0.180,551
2021-07-06T00:31:04,42.805,6.029,CST-1368DR,5416,7536,14930,0.180,551
2021-07-06T00:34:05,42.805,6.029,CST-1368DR,5416,7536,14930,0.180,551
2021-07-06T00:37:07,42.805,6.029,CST-1368DR,5416,7536,14930,0.180,551
2021-07-06T00:40:09,42.805,6.029,CST-1368DR,5416,7536,14929,0.180,551
2021-07-06T00:43:10,42.805,6.029,CST-1368DR,5416,7536,14930,0.180,550
2021-07-06T00:46:12,42.805,6.029,CST-1368DR,5416,7536,14930,0.180,551
2021-07-06T00:49:13,42.805,6.029,CST-1368DR,5416,7535,14929,0.180,551
2021-07-06T00:52:15,42.805,6.029,CST-1368DR,5416,7537,14931,0.179,551
2021-07-06T00:55:17,42.805,6.029,CST-1368DR,5416,7537,14931,0.179,551
2021-07-06T00:58:18,42.805,6.029,CST-1368DR,5416,7537,14931,0.179,551
2021-07-06T01:01:20,42.805,6.029,CST-1368DR,5416,7536,14930,0.180,551
2021-07-06T01:04:21,42.805,6.029,CST-1368DR,5416,7535,14928,0.180,551
2021-07-06T01:07:23,42.805,6.029,CST-1368DR,5416,7536,14930,0.180,551
2021-07-06T01:10:24,42.805,6.029,CST-1368DR,5416,7535,14928,0.180,551
2021-07-06T01:13:26,42.805,6.029,CST-1368DR,5416,7536,14930,0.180,551
2021-07-06T01:16:28,42.805,6.029,CST-1368DR,5416,7536,14930,0.180,551
2021-07-06T01:19:29,42.805,6.029,CST-1368DR,5416,7535,14928,0.180,551
2021-07-06T01:22:31,42.805,6.029,CST-1368DR,5416,7535,14929,0.180,551
2021-07-06T01:25:32,42.805,6.029,CST-1368DR,5416,7535,14929,0.180,551
2021-07-06T01:28:34,42.805,6.029,CST-1368DR,5416,7535,14928,0.180,551
2021-07-06T01:31:36,42.805,6.029,CST-1368DR,5416,7536,14930,0.180,551
2021-07-06T01:34:37,42.805,6.029,CST-1368DR,5416,7536,14930,0.180,551
2021-07-06T01:37:39,42.805,6.029,CST-1368DR,5416,7536,14929,0.180,551
2021-07-06T01:40:40,42.805,6.029,CST-1368DR,5416,7536,14929,0.180,551
2021-07-06T01:43:42,42.805,6.029,CST-1368DR,5416,7535,14929,0.180,551
2021-07-06T01:46:43,42.805,6.029,CST-1368DR,5416,7536,14930,0.180,551
2021-07-06T01:49:45,42.805,6.029,CST-1368DR,5416,7537,14931,0.179,551
2021-07-06T01:52:47,42.805,6.029,CST-1368DR,5416,7536,14930,0.180,551
2021-07-06T01:55:48,42.805,6.029,CST-1368DR,5416,7535,14929,0.180,551
2021-07-06T01:58:50,42.805,6.029,CST-1368DR,5416,7536,14930,0.180,551
2021-07-06T02:01:51,42.805,6.029,CST-1368DR,5416,7536,14930,0.180,551
2021-07-06T02:04:53,42.805,6.029,CST-1368DR,5416,7536,14930,0.180,551
2021-07-06T02:07:55,42.805,6.029,CST-1368DR,5416,7535,14927,0.180,551
2021-07-06T02:10:56,42.805,6.029,CST-1368DR,5416,7535,14928,0.180,551
2021-07-06T02:13:58,42.805,6.029,CST-1368DR,5416,7535,14929,0.180,551
2021-07-06T02:16:59,42.805,6.029,CST-1368DR,5416,7536,14930,0.180,551
2021-07-06T02:20:01,42.805,6.029,CST-1368DR,5416,7535,14928,0.180,551
2021-07-06T02:23:02,42.805,6.029,CST-1368DR,5416,7535,14929,0.180,551
2021-07-06T02:26:04,42.805,6.029,CST-1368DR,5416,7535,14929,0.180,551
2021-07-06T02:29:06,42.805,6.029,CST-1368DR,5416,7535,14928,0.180,551
2021-07-06T02:32:07,42.805,6.029,CST-1368DR,5416,7536,14929,0.180,551
2021-07-06T02:35:09,42.805,6.029,CST-1368DR,5416,7536,14930,0.180,551
2021-07-06T02:38:10,42.805,6.029,CST-1368DR,5416,7536,14930,0.180,551
2021-07-06T02:41:12,42.805,6.029,CST-1368DR,5416,7535,14929,0.180,551
2021-07-06T02:44:13,42.805,6.029,CST-1368DR,5416,7536,14929,0.180,551
2021-07-06T02:47:15,42.805,6.029,CST-1368DR,5416,7535,14929,0.180,551
2021-07-06T02:50:17,42.805,6.029,CST-1368DR,5416,7535,14928,0.180,551
2021-07-06T02:53:18,42.805,6.029,CST-1368DR,5416,7536,14929,0.180,551
2021-07-06T02:56:20,42.805,6.029,CST-1368DR,5416,7535,14927,0.180,551
2021-07-06T02:59:21,42.805,6.029,CST-1368DR,5416,7535,14929,0.180,551
2021-07-06T03:02:23,42.805,6.029,CST-1368DR,5415,7535,14931,0.179,551
2021-07-06T03:05:25,42.805,6.029,CST-1368DR,5415,7535,14930,0.180,551
2021-07-06T03:08:26,42.805,6.029,CST-1368DR,5416,7535,14928,0.180,551
2021-07-06T03:11:28,42.805,6.029,CST-1368DR,5416,7535,14929,0.180,551
2021-07-06T03:14:29,42.805,6.029,CST-1368DR,5415,7536,14932,0.179,551
2021-07-06T03:17:31,42.805,6.029,CST-1368DR,5416,7536,14930,0.180,551
2021-07-06T03:20:32,42.805,6.029,CST-1368DR,5416,7535,14928,0.180,551
2021-07-06T03:23:34,42.805,6.029,CST-1368DR,5416,7536,14930,0.180,551
2021-07-06T03:26:36,42.805,6.029,CST-1368DR,5416,7535,14929,0.180,551
2021-07-06T03:29:37,42.805,6.029,CST-1368DR,5416,7535,14928,0.180,551
2021-07-06T03:32:39,42.805,6.029,CST-1368DR,5416,7535,14928,0.180,551
2021-07-06T03:35:40,42.805,6.029,CST-1368DR,5415,7535,14931,0.179,551
2021-07-06T03:38:42,42.805,6.029,CST-1368DR,5415,7536,14933,0.179,551
2021-07-06T03:41:44,42.805,6.029,CST-1368DR,5416,7535,14927,0.180,551
2021-07-06T03:44:45,42.805,6.029,CST-1368DR,5415,7535,14930,0.180,551
2021-07-06T03:47:47,42.805,6.029,CST-1368DR,5415,7536,14932,0.179,551
2021-07-06T03:50:48,42.805,6.029,CST-1368DR,5415,7535,14930,0.180,551
2021-07-06T03:53:50,42.805,6.029,CST-1368DR,5415,7535,14930,0.180,551
2021-07-06T03:56:51,42.805,6.029,CST-1368DR,5416,7535,14929,0.180,550
2021-07-06T03:59:53,42.805,6.029,CST-1368DR,5415,7536,14932,0.179,551
2021-07-06T04:02:55,42.805,6.029,CST-1368DR,5415,7536,14932,0.179,551
2021-07-06T04:05:56,42.805,6.029,CST-1368DR,5415,7535,14931,0.179,551
2021-07-06T04:08:58,42.805,6.029,CST-1368DR,5415,7535,14930,0.180,551
2021-07-06T04:11:59,42.805,6.029,CST-1368DR,5415,7535,14931,0.179,551
2021-07-06T04:15:01,42.805,6.029,CST-1368DR,5415,7535,14931,0.179,551
2021-07-06T04:18:02,42.805,6.029,CST-1368DR,5415,7535,14931,0.179,551
2021-07-06T04:21:04,42.805,6.029,CST-1368DR,5415,7535,14931,0.179,551
2021-07-06T04:24:06,42.805,6.029,CST-1368DR,5415,7535,14931,0.179,551
2021-07-06T04:27:07,42.805,6.029,CST-1368DR,5415,7535,14931,0.179,551
2021-07-06T04:30:09,42.805,6.029,CST-1368DR,5415,7536,14932,0.179,551
2021-07-06T04:33:10,42.805,6.029,CST-1368DR,5415,7535,14931,0.179,551
2021-07-06T04:36:12,42.805,6.029,CST-1368DR,5415,7535,14931,0.179,551
2021-07-06T04:39:14,42.805,6.029,CST-1368DR,5415,7535,14931,0.179,551
2021-07-06T04:42:15,42.805,6.029,CST-1368DR,5415,7535,14931,0.179,551
2021-07-06T04:45:17,42.805,6.029,CST-1368DR,5415,7535,14931,0.179,551
2021-07-06T04:48:18,42.805,6.029,CST-1368DR,5415,7534,14929,0.180,551
2021-07-06T04:51:20,42.805,6.029,CST-1368DR,5415,7535,14930,0.180,551
2021-07-06T04:54:21,42.805,6.029,CST-1368DR,5415,7534,14928,0.180,551
2021-07-06T04:57:23,42.805,6.029,CST-1368DR,5415,7534,14928,0.180,551
2021-07-06T05:00:25,42.805,6.029,CST-1368DR,5415,7534,14929,0.180,551
2021-07-06T05:03:26,42.805,6.029,CST-1368DR,5415,7534,14929,0.180,551
2021-07-06T05:06:28,42.805,6.029,CST-1368DR,5415,7534,14929,0.180,551
2021-07-06T05:09:29,42.805,6.029,CST-1368DR,5415,7535,14930,0.180,551
2021-07-06T05:12:31,42.805,6.029,CST-1368DR,5415,7535,14930,0.180,551
2021-07-06T05:15:32,42.805,6.029,CST-1368DR,5415,7534,14928,0.180,551
2021-07-06T05:18:34,42.805,6.029,CST-1368DR,5415,7535,14930,0.180,551
2021-07-06T05:21:36,42.805,6.029,CST-1368DR,5415,7534,14928,0.180,551
2021-07-06T05:24:37,42.805,6.029,CST-1368DR,5415,7535,14930,0.180,551
2021-07-06T05:27:39,42.805,6.029,CST-1368DR,5415,7533,14927,0.180,551
2021-07-06T05:30:40,42.805,6.029,CST-1368DR,5415,7533,14927,0.180,551
2021-07-06T05:33:42,42.805,6.029,CST-1368DR,5415,7534,14928,0.180,551
2021-07-06T05:36:44,42.805,6.029,CST-1368DR,5415,7534,14929,0.180,551
2021-07-06T05:39:45,42.805,6.029,CST-1368DR,5415,7533,14927,0.180,551
2021-07-06T05:42:47,42.805,6.029,CST-1368DR,5415,7535,14930,0.180,551
2021-07-06T05:45:48,42.805,6.029,CST-1368DR,5415,7534,14929,0.180,551
2021-07-06T05:48:50,42.805,6.029,CST-1368DR,5415,7534,14929,0.180,551
2021-07-06T05:51:51,42.805,6.029,CST-1368DR,5415,7533,14927,0.180,550
2021-07-06T05:54:53,42.805,6.029,CST-1368DR,5415,7535,14930,0.180,551
2021-07-06T05:57:55,42.805,6.029,CST-1368DR,5415,7534,14929,0.180,551
2021-07-06T06:00:56,42.805,6.029,CST-1368DR,5415,7533,14927,0.180,551
2021-07-06T06:03:58,42.805,6.029,CST-1368DR,5415,7534,14928,0.180,551
2021-07-06T06:06:59,42.805,6.029,CST-1368DR,5415,7534,14928,0.180,551
2021-07-06T06:10:01,42.805,6.029,CST-1368DR,5415,7534,14929,0.180,550
2021-07-06T06:13:02,42.805,6.029,CST-1368DR,5415,7534,14928,0.180,551
2021-07-06T06:16:04,42.805,6.029,CST-1368DR,5415,7530,14920,0.182,551
2021-07-06T06:19:06,42.805,6.029,CST-1368DR,5415,7534,14929,0.180,551
2021-07-06T06:22:07,42.805,6.029,CST-1368DR,5415,7534,14928,0.180,551
2021-07-06T06:25:09,42.805,6.029,CST-1368DR,5415,7535,14930,0.180,551
2021-07-06T06:28:10,42.805,6.029,CST-1368DR,5415,7535,14930,0.180,551
2021-07-06T06:31:12,42.805,6.029,CST-1368DR,5415,7530,14921,0.182,551
2021-07-06T06:34:14,42.805,6.029,CST-1368DR,5415,7531,14923,0.182,551
2021-07-06T06:37:15,42.805,6.029,CST-1368DR,5415,7532,14925,0.181,551
2021-07-06T06:40:17,42.805,6.029,CST-1368DR,5415,7533,14927,0.180,551
2021-07-06T06:43:18,42.805,6.029,CST-1368DR,5415,7534,14929,0.180,551
2021-07-06T06:46:20,42.805,6.029,CST-1368DR,5415,7534,14929,0.180,551
2021-07-06T06:49:21,42.805,6.029,CST-1368DR,5415,7533,14927,0.180,551
2021-07-06T06:52:23,42.805,6.029,CST-1368DR,5415,7534,14928,0.180,551
2021-07-06T06:55:25,42.805,6.029,CST-1368DR,5415,7534,14929,0.180,551
2021-07-06T06:58:26,42.805,6.029,CST-1368DR,5415,7534,14928,0.180,551
2021-07-06T07:01:28,42.805,6.029,CST-1368DR,5415,7533,14926,0.181,551
2021-07-06T07:04:29,42.805,6.029,CST-1368DR,5415,7533,14926,0.181,551
2021-07-06T07:07:31,42.805,6.029,CST-1368DR,5415,7531,14923,0.182,551
2021-07-06T07:10:33,42.805,6.029,CST-1368DR,5415,7533,14927,0.180,551
2021-07-06T07:13:34,42.805,6.029,CST-1368DR,5415,7534,14928,0.180,551
2021-07-06T07:16:36,42.805,6.029,CST-1368DR,5415,7534,14928,0.180,551
2021-07-06T07:19:37,42.805,6.029,CST-1368DR,5415,7533,14927,0.180,551
2021-07-06T07:22:39,42.805,6.029,CST-1368DR,5415,7533,14927,0.180,551
2021-07-06T07:25:40,42.805,6.029,CST-1368DR,5415,7534,14929,0.180,551
2021-07-06T07:28:42,42.805,6.029,CST-1368DR,5415,7534,14928,0.180,551
2021-07-06T07:31:44,42.805,6.029,CST-1368DR,5415,7534,14929,0.180,551
2021-07-06T07:34:45,42.805,6.029,CST-1368DR,5415,7534,14928,0.180,551
2021-07-06T07:37:47,42.805,6.029,CST-1368DR,5415,7533,14927,0.180,551
2021-07-06T07:40:48,42.805,6.029,CST-1368DR,5415,7534,14929,0.180,551
2021-07-06T07:43:50,42.805,6.029,CST-1368DR,5415,7534,14928,0.180,551
2021-07-06T07:46:51,42.805,6.029,CST-1368DR,5415,7533,14927,0.180,551
2021-07-06T07:49:53,42.805,6.029,CST-1368DR,5415,7534,14928,0.180,551
2021-07-06T07:52:55,42.805,6.029,CST-1368DR,5415,7533,14926,0.181,551
2021-07-06T07:55:56,42.805,6.029,CST-1368DR,5415,7533,14926,0.181,551
2021-07-06T07:58:58,42.805,6.029,CST-1368DR,5415,7533,14926,0.181,551
2021-07-06T08:01:59,42.805,6.029,CST-1368DR,5415,7533,14927,0.180,551
2021-07-06T08:05:01,42.805,6.029,CST-1368DR,5415,7533,14927,0.180,551
2021-07-06T08:08:03,42.805,6.029,CST-1368DR,5415,7533,14927,0.180,551
2021-07-06T08:11:04,42.805,6.029,CST-1368DR,5415,7533,14926,0.181,551
2021-07-06T08:14:06,42.805,6.029,CST-1368DR,5415,7533,14927,0.180,551
2021-07-06T08:17:07,42.805,6.029,CST-1368DR,5415,7533,14927,0.180,551
2021-07-06T08:20:09,42.805,6.029,CST-1368DR,5415,7533,14927,0.180,551
2021-07-06T08:23:10,42.805,6.029,CST-1368DR,5415,7533,14926,0.181,551
2021-07-06T08:26:12,42.805,6.029,CST-1368DR,5415,7534,14928,0.180,551
2021-07-06T08:29:14,42.805,6.029,CST-1368DR,5415,7533,14927,0.180,551
2021-07-06T08:32:15,42.805,6.029,CST-1368DR,5415,7532,14924,0.181,551
2021-07-06T08:35:17,42.805,6.029,CST-1368DR,5415,7533,14926,0.181,550
2021-07-06T08:38:18,42.805,6.029,CST-1368DR,5415,7533,14926,0.181,551
2021-07-06T08:41:20,42.805,6.029,CST-1368DR,5415,7533,14927,0.180,551
2021-07-06T08:44:22,42.805,6.029,CST-1368DR,5415,7532,14924,0.181,551
2021-07-06T08:47:23,42.805,6.029,CST-1368DR,5415,7533,14927,0.180,551
2021-07-06T08:50:25,42.805,6.029,CST-1368DR,5415,7532,14924,0.181,550
2021-07-06T08:53:26,42.805,6.029,CST-1368DR,5415,7533,14927,0.180,551
2021-07-06T08:56:28,42.805,6.029,CST-1368DR,5415,7533,14927,0.180,551
2021-07-06T08:59:29,42.805,6.029,CST-1368DR,5415,7533,14927,0.180,551
2021-07-06T09:02:31,42.805,6.029,CST-1368DR,5415,7533,14927,0.180,551
2021-07-06T09:05:33,42.805,6.029,CST-1368DR,5415,7533,14926,0.181,551
2021-07-06T09:08:34,42.805,6.029,CST-1368DR,5415,7533,14927,0.180,551
2021-07-06T09:11:36,42.805,6.029,CST-1368DR,5415,7534,14928,0.180,551
2021-07-06T09:14:37,42.805,6.029,CST-1368DR,5415,7533,14927,0.180,551
2021-07-06T09:17:39,42.805,6.029,CST-1368DR,5415,7531,14923,0.182,551
2021-07-06T09:20:40,42.805,6.029,CST-1368DR,5415,7533,14926,0.181,551
2021-07-06T09:23:42,42.805,6.029,CST-1368DR,5415,7533,14927,0.180,551
2021-07-06T09:26:44,42.805,6.029,CST-1368DR,5415,7533,14926,0.181,551
2021-07-06T09:29:45,42.805,6.029,CST-1368DR,5415,7532,14925,0.181,551
2021-07-06T09:32:47,42.805,6.029,CST-1368DR,5415,7533,14926,0.181,551
2021-07-06T09:35:48,42.805,6.029,CST-1368DR,5415,7533,14927,0.180,551
2021-07-06T09:38:50,42.805,6.029,CST-1368DR,5415,7533,14927,0.180,551
2021-07-06T09:41:52,42.805,6.029,CST-1368DR,5415,7533,14926,0.181,551
2021-07-06T09:44:53,42.805,6.029,CST-1368DR,5415,7533,14927,0.180,551
2021-07-06T09:47:55,42.805,6.029,CST-1368DR,5415,7533,14927,0.180,551
2021-07-06T09:50:56,42.805,6.029,CST-1368DR,5415,7533,14926,0.181,551
2021-07-06T09:53:58,42.805,6.029,CST-1368DR,5415,7533,14926,0.181,551
2021-07-06T09:56:59,42.805,6.029,CST-1368DR,5415,7532,14924,0.181,551
2021-07-06T10:00:01,42.805,6.029,CST-1368DR,5415,7532,14925,0.181,551
2021-07-06T10:03:03,42.805,6.029,CST-1368DR,5415,7533,14926,0.181,551
2021-07-06T10:06:04,42.805,6.029,CST-1368DR,5415,7533,14926,0.181,551
2021-07-06T10:09:06,42.805,6.029,CST-1368DR,5415,7533,14926,0.181,551
2021-07-06T10:12:07,42.805,6.029,CST-1368DR,5415,7533,14926,0.181,551
2021-07-06T10:15:09,42.805,6.029,CST-1368DR,5415,7533,14926,0.181,551
2021-07-06T10:18:11,42.805,6.029,CST-1368DR,5415,7532,14925,0.181,551
2021-07-06T10:21:12,42.805,6.029,CST-1368DR,5415,7532,14924,0.181,551
2021-07-06T10:24:14,42.805,6.029,CST-1368DR,5415,7532,14924,0.181,550
2021-07-06T10:27:15,42.805,6.029,CST-1368DR,5415,7532,14924,0.181,551
2021-07-06T10:30:17,42.805,6.029,CST-1368DR,5415,7533,14927,0.180,551
2021-07-06T10:33:18,42.805,6.029,CST-1368DR,5415,7532,14924,0.181,551
2021-07-06T10:36:20,42.805,6.029,CST-1368DR,5415,7532,14924,0.181,551
2021-07-06T10:39:22,42.805,6.029,CST-1368DR,5415,7532,14925,0.181,551
2021-07-06T10:42:23,42.805,6.029,CST-1368DR,5415,7532,14924,0.181,550
2021-07-06T10:45:25,42.805,6.029,CST-1368DR,5415,7533,14926,0.181,551
2021-07-06T10:48:26,42.805,6.029,CST-1368DR,5415,7533,14926,0.181,551
2021-07-06T10:51:28,42.805,6.029,CST-1368DR,5415,7532,14925,0.181,551
2021-07-06T10:54:29,42.805,6.029,CST-1368DR,5415,7533,14926,0.181,551
2021-07-06T10:57:31,42.805,6.029,CST-1368DR,5414,7531,14925,0.181,551
2021-07-06T11:00:33,42.805,6.029,CST-1368DR,5414,7533,14928,0.180,551
2021-07-06T11:03:34,42.805,6.029,CST-1368DR,5415,7533,14926,0.181,551
2021-07-06T11:06:36,42.805,6.029,CST-1368DR,5415,7533,14927,0.180,551
2021-07-06T11:09:37,42.805,6.029,CST-1368DR,5415,7533,14927,0.180,551
2021-07-06T11:12:39,42.805,6.029,CST-1368DR,5415,7532,14925,0.181,551
2021-07-06T11:15:41,42.805,6.029,CST-1368DR,5415,7533,14926,0.181,551
2021-07-06T11:18:42,42.805,6.029,CST-1368DR,5415,7533,14926,0.181,551
2021-07-06T11:21:44,42.805,6.029,CST-1368DR,5414,7533,14928,0.180,551
2021-07-06T11:24:45,42.805,6.029,CST-1368DR,5414,7532,14927,0.180,551
2021-07-06T11:27:47,42.805,6.029,CST-1368DR,5414,7532,14927,0.180,551
2021-07-06T11:30:48,42.805,6.029,CST-1368DR,5414,7532,14927,0.180,551
2021-07-06T11:33:50,42.805,6.029,CST-1368DR,5414,7533,14928,0.180,551
2021-07-06T11:36:52,42.805,6.029,CST-1368DR,5415,7533,14926,0.181,551
2021-07-06T11:39:53,42.805,6.029,CST-1368DR,5414,7532,14927,0.180,551
2021-07-06T11:42:55,42.805,6.029,CST-1368DR,5414,7532,14926,0.181,551
2021-07-06T11:45:56,42.805,6.029,CST-1368DR,5414,7533,14929,0.180,551
2021-07-06T11:48:58,42.805,6.029,CST-1368DR,5414,7532,14927,0.180,551
2021-07-06T11:51:59,42.805,6.029,CST-1368DR,5414,7533,14928,0.180,551
2021-07-06T11:55:01,42.805,6.029,CST-1368DR,5414,7533,14928,0.180,550
2021-07-06T11:58:03,42.805,6.029,CST-1368DR,5414,7531,14925,0.181,551
2021-07-06T12:01:04,42.805,6.029,CST-1368DR,5414,7533,14928,0.180,551
2021-07-06T12:04:06,42.805,6.029,CST-1368DR,5414,7531,14925,0.181,551
2021-07-06T12:07:07,42.805,6.029,CST-1368DR,5414,7532,14927,0.180,551
2021-07-06T12:10:09,42.805,6.029,CST-1368DR,5414,7531,14924,0.181,551
2021-07-06T12:13:11,42.805,6.029,CST-1368DR,5414,7531,14926,0.181,551
2021-07-06T12:16:12,42.805,6.029,CST-1368DR,5414,7532,14927,0.180,551
2021-07-06T12:19:14,42.805,6.029,CST-1368DR,5414,7532,14926,0.181,551
2021-07-06T12:22:15,42.805,6.029,CST-1368DR,5414,7532,14927,0.180,551
2021-07-06T12:25:17,42.805,6.029,CST-1368DR,5414,7532,14927,0.180,550
2021-07-06T12:28:18,42.805,6.029,CST-1368DR,5414,7532,14927,0.180,551
2021-07-06T12:31:20,42.805,6.029,CST-1368DR,5414,7532,14926,0.181,551
2021-07-06T12:34:22,42.805,6.029,CST-1368DR,5414,7531,14925,0.181,551
2021-07-06T12:37:23,42.805,6.029,CST-1368DR,5414,7532,14927,0.180,551
2021-07-06T12:40:25,42.805,6.029,CST-1368DR,5414,7532,14927,0.180,551
2021-07-06T12:43:26,42.805,6.029,CST-1368DR,5414,7532,14926,0.181,551
2021-07-06T12:46:28,42.805,6.029,CST-1368DR,5414,7531,14925,0.181,550
2021-07-06T12:49:30,42.805,6.029,CST-1368DR,5414,7531,14926,0.181,551
2021-07-06T12:52:31,42.805,6.029,CST-1368DR,5414,7531,14926,0.181,551
2021-07-06T12:55:33,42.805,6.029,CST-1368DR,5414,7532,14927,0.180,551
2021-07-06T12:58:34,42.805,6.029,CST-1368DR,5414,7531,14924,0.181,551
2021-07-06T13:01:36,42.805,6.029,CST-1368DR,5414,7532,14927,0.180,551
2021-07-06T13:04:37,42.805,6.029,CST-1368DR,5414,7531,14925,0.181,551
2021-07-06T13:07:39,42.805,6.029,CST-1368DR,5414,7532,14926,0.181,551
2021-07-06T13:10:41,42.805,6.029,CST-1368DR,5414,7533,14928,0.180,551
2021-07-06T13:13:42,42.805,6.029,CST-1368DR,5414,7532,14926,0.181,551
2021-07-06T13:16:44,42.805,6.029,CST-1368DR,5414,7531,14925,0.181,551
2021-07-06T13:19:45,42.805,6.029,CST-1368DR,5414,7532,14927,0.180,551
2021-07-06T13:22:47,42.805,6.029,CST-1368DR,5414,7532,14926,0.181,551
2021-07-06T13:25:49,42.805,6.029,CST-1368DR,5414,7531,14925,0.181,551
2021-07-06T13:28:50,42.805,6.029,CST-1368DR,5414,7531,14925,0.181,551
2021-07-06T13:31:52,42.805,6.029,CST-1368DR,5414,7531,14925,0.181,551
2021-07-06T13:34:53,42.805,6.029,CST-1368DR,5414,7532,14926,0.181,551
2021-07-06T13:37:55,42.805,6.029,CST-1368DR,5414,7532,14927,0.180,551
2021-07-06T13:40:56,42.805,6.029,CST-1368DR,5414,7532,14926,0.181,551
2021-07-06T13:43:58,42.805,6.029,CST-1368DR,5414,7531,14926,0.181,551
2021-07-06T13:47:00,42.805,6.029,CST-1368DR,5414,7532,14927,0.180,551
2021-07-06T13:50:01,42.805,6.029,CST-1368DR,5414,7531,14925,0.181,551
2021-07-06T13:53:03,42.805,6.029,CST-1368DR,5414,7532,14926,0.181,551
2021-07-06T13:56:04,42.805,6.029,CST-1368DR,5414,7529,14921,0.182,551
2021-07-06T13:59:06,42.805,6.029,CST-1368DR,5414,7531,14925,0.181,551
2021-07-06T14:02:07,42.805,6.029,CST-1368DR,5414,7532,14926,0.181,551
2021-07-06T14:05:09,42.805,6.029,CST-1368DR,5414,7531,14925,0.181,551
2021-07-06T14:08:11,42.805,6.029,CST-1368DR,5414,7531,14925,0.181,551
2021-07-06T14:11:12,42.805,6.029,CST-1368DR,5414,7530,14922,0.182,551
2021-07-06T14:14:14,42.805,6.029,CST-1368DR,5414,7531,14925,0.181,551
2021-07-06T14:17:15,42.805,6.029,CST-1368DR,5414,7531,14925,0.181,551
2021-07-06T14:20:17,42.805,6.029,CST-1368DR,5414,7531,14924,0.181,551
2021-07-06T14:23:19,42.805,6.029,CST-1368DR,5414,7532,14926,0.181,551
2021-07-06T14:26:20,42.805,6.029,CST-1368DR,5414,7532,14927,0.180,551
2021-07-06T14:29:22,42.805,6.029,CST-1368DR,5414,7531,14926,0.181,551
2021-07-06T14:32:23,42.805,6.029,CST-1368DR,5414,7531,14925,0.181,551
2021-07-06T14:35:25,42.805,6.029,CST-1368DR,5414,7531,14925,0.181,551
2021-07-06T14:38:26,42.805,6.029,CST-1368DR,5414,7531,14926,0.181,551
2021-07-06T14:41:28,42.805,6.029,CST-1368DR,5414,7532,14926,0.181,551
2021-07-06T14:44:30,42.805,6.029,CST-1368DR,5414,7532,14927,0.180,551
2021-07-06T14:47:31,42.805,6.029,CST-1368DR,5414,7519,14902,0.187,551
2021-07-06T14:50:33,42.805,6.029,CST-1368DR,5414,7532,14926,0.181,551
2021-07-06T14:53:34,42.805,6.029,CST-1368DR,5414,7531,14926,0.181,551
2021-07-06T14:56:36,42.805,6.029,CST-1368DR,5414,7531,14926,0.181,551
2021-07-06T14:59:38,42.805,6.029,CST-1368DR,5414,7528,14920,0.182,551
2021-07-06T15:02:39,42.805,6.029,CST-1368DR,5414,7532,14926,0.181,551
2021-07-06T15:05:41,42.805,6.029,CST-1368DR,5414,7532,14927,0.180,551
2021-07-06T15:08:42,42.805,6.029,CST-1368DR,5414,7532,14927,0.180,551
2021-07-06T15:11:44,42.805,6.029,CST-1368DR,5414,7531,14926,0.181,551
2021-07-06T15:14:45,42.805,6.029,CST-1368DR,5414,7531,14926,0.181,551
2021-07-06T15:17:47,42.805,6.029,CST-1368DR,5414,7524,14912,0.185,551
2021-07-06T15:20:49,42.805,6.029,CST-1368DR,5414,7532,14927,0.180,551
2021-07-06T15:23:50,42.805,6.029,CST-1368DR,5414,7531,14924,0.181,551
2021-07-06T15:26:52,42.805,6.029,CST-1368DR,5414,7531,14925,0.181,551
2021-07-06T15:29:53,42.805,6.029,CST-1368DR,5414,7532,14926,0.181,551
2021-07-06T15:32:55,42.805,6.029,CST-1368DR,5414,7531,14926,0.181,551
2021-07-06T15:35:56,42.805,6.029,CST-1368DR,5414,7531,14926,0.181,551
2021-07-06T15:38:58,42.805,6.029,CST-1368DR,5414,7530,14923,0.182,551
2021-07-06T15:42:00,42.805,6.029,CST-1368DR,5414,7532,14926,0.181,551
2021-07-06T15:45:01,42.805,6.029,CST-1368DR,5414,7531,14926,0.181,551
2021-07-06T15:48:03,42.805,6.029,CST-1368DR,5414,7532,14926,0.181,551
2021-07-06T15:51:04,42.805,6.029,CST-1368DR,5414,7532,14926,0.181,551
2021-07-06T15:54:06,42.805,6.029,CST-1368DR,5414,7532,14926,0.181,551
2021-07-06T15:57:08,42.805,6.029,CST-1368DR,5414,7531,14926,0.181,551
2021-07-06T16:00:09,42.805,6.029,CST-1368DR,5414,7532,14927,0.180,551
2021-07-06T16:03:11,42.805,6.029,CST-1368DR,5414,7532,14926,0.181,551
2021-07-06T16:06:12,42.805,6.029,CST-1368DR,5414,7531,14926,0.181,551
2021-07-06T16:09:14,42.805,6.029,CST-1368DR,5414,7530,14923,0.182,551
2021-07-06T16:12:15,42.805,6.029,CST-1368DR,5414,7528,14920,0.182,551
2021-07-06T16:15:17,42.805,6.029,CST-1368DR,5414,7531,14925,0.181,551
2021-07-06T16:18:19,42.805,6.029,CST-1368DR,5414,7530,14924,0.181,551
2021-07-06T16:21:20,42.805,6.029,CST-1368DR,5414,7531,14925,0.181,551
2021-07-06T16:24:22,42.805,6.029,CST-1368DR,5414,7530,14923,0.182,551
2021-07-06T16:27:23,42.805,6.029,CST-1368DR,5414,7532,14926,0.181,551
2021-07-06T16:30:25,42.805,6.029,CST-1368DR,5414,7530,14922,0.182,551
2021-07-06T16:33:26,42.805,6.029,CST-1368DR,5414,7532,14926,0.181,551
2021-07-06T16:36:28,42.805,6.029,CST-1368DR,5414,7530,14923,0.182,551
2021-07-06T16:39:30,42.805,6.029,CST-1368DR,5414,7531,14926,0.181,551
2021-07-06T16:42:31,42.805,6.029,CST-1368DR,5414,7531,14924,0.181,551
2021-07-06T16:45:33,42.805,6.029,CST-1368DR,5414,7531,14925,0.181,551
2021-07-06T16:48:34,42.805,6.029,CST-1368DR,5414,7531,14925,0.181,551
2021-07-06T16:51:36,42.805,6.029,CST-1368DR,5414,7532,14927,0.180,551